[[{"header":{"parameterUnit":"m.s-1","parameterCategory":2,"la1":30.2991,"la2":30.254,"lo1":-89.0895,"lo2":-89.0444,"dy":0.0017,"dx":0.0017,"nx":28,"ny":28,"refTime":"2025-12-18T09:00:00:Z","depth":"0","parameterNumber":2,"parameterNumberName":"U-component_of_CURRENTS"},"data":[0,0,0,0,0,0,0,0,0,0,0,0,0,0,0,0,0,0,0,0,0,0,0,0,0,0,0,0,0,0,0,0,0,0,0,0,0,0,0,0,0,0,0,0,0,0,0,0,0,0,0,0,0,0,0,0,0,0,0.3081,0.3082,0,0.3112,0.3112,0.3112,0.311,0.3109,0.3109,0.3109,0.3099,0.3099,0.3099,0,0,0,0,0,0,0,0,0,0,0,0,0,0.3026,0.3027,0.3081,0.3082,0.3082,0.3112,0.3112,0.3112,0.311,0.3109,0.3109,0.3109,0.3099,0.3099,0.3099,0,0,0,0,0,0,0,0,0,0,0,0,0,0.3049,0.3027,0.3081,0.3087,0.3088,0.3112,0.3112,0.3112,0.311,0.3109,0.3109,0.3109,0.3099,0.3099,0.3099,0.3102,0,0,0.3098,0.3098,0,0,0,0,0,0,0,0,0.3048,0.3051,0.3086,0.3087,0.3088,0.311,0.3089,0.3108,0.311,0.3098,0.3109,0.3109,0.3101,0.3101,0.3103,0.3102,0.3101,0.3098,0.3098,0.3098,0.3098,0,0,0,0,0,0,0,0.3047,0.305,0.309,0.3087,0.3088,0.3091,0.3093,0.3093,0.3097,0.3099,0.31,0.3109,0.3101,0.3103,0.3103,0.3101,0.3098,0.3098,0.3098,0.3098,0.3158,0.3159,0,0,0,0,0,0,0.305,0.3048,0.3089,0.3091,0.3071,0.3092,0.3095,0.31,0.3098,0.3099,0.3109,0.3109,0.3104,0.3103,0.3102,0.315,0.3098,0.3098,0.3098,0.3156,0.3158,0.316,0,0,0,0,0,0,0.3048,0.3053,0.3088,0.3073,0.3078,0.3094,0.3099,0.3101,0.3109,0.3107,0.3106,0.3116,0.3103,0.3102,0.3117,0.3148,0.3098,0.3098,0.3154,0.3157,0.3159,0.3217,0,0,0,0,0,0,0.3046,0.3052,0.3055,0.3073,0.3079,0.3115,0.31,0.3102,0.3116,0.3116,0.3113,0.3111,0.3103,0.3118,0.3117,0.3147,0.3097,0.3152,0.3155,0.3158,0.3213,0.3222,0.3229,0,0,0,0,0,0.3044,0.3053,0.3055,0.306,0.3084,0.3116,0.312,0.3127,0.3117,0.313,0.3129,0.3111,0.3138,0.3119,0.3118,0.3148,0.315,0.3154,0.3158,0.321,0.322,0.3229,0,0,0,0,0,0,0.3028,0.3055,0.3057,0.3072,0.3099,0.3117,0.3128,0.3132,0.3141,0.3137,0.3126,0.3125,0.3156,0.3143,0.3122,0.3177,0.3144,0.3148,0.3184,0.3194,0.3201,0.3207,0.3097,0,0,0,0,0,0.3028,0.3043,0.307,0.3084,0.3095,0.3111,0.3123,0.3133,0.3145,0.3148,0.3146,0.3151,0.3171,0.3174,0.3185,0.3204,0.321,0.3227,0.3235,0.3241,0.3247,0.3289,0.3301,0.3173,0.3173,0.3173,0,0,0.3025,0.3043,0.305,0.3083,0.3097,0.3127,0.3117,0.3144,0.317,0.3145,0.317,0.3177,0.3184,0.3216,0.3228,0.3207,0.3283,0.3246,0.3251,0.3254,0.3295,0.3307,0.3318,0.3175,0.3175,0.3174,0,0,0.3033,0.3044,0.306,0.3087,0.3122,0.314,0.315,0.3175,0.3187,0.3215,0.3214,0.3238,0.3251,0.327,0.328,0.3336,0.3327,0.3342,0.3378,0.342,0.3431,0.344,0.347,0.3481,0.334,0.334,0.334,0,0.3023,0.305,0.3072,0.31,0.312,0.3148,0.3172,0.32,0.3228,0.3242,0.3232,0.3281,0.3281,0.3335,0.3358,0.3353,0.3371,0.334,0.343,0.3439,0.3448,0.3476,0.3488,0.3343,0.3343,0.3343,0.3342,0,0.3053,0.3071,0.3085,0.313,0.316,0.3187,0.323,0.3259,0.3272,0.3296,0.3346,0.3358,0.3386,0.3399,0.3394,0.3463,0.3455,0.3438,0.3404,0.3464,0.349,0.3502,0.3348,0.3347,0.3346,0.3345,0,0,0.3015,0.3088,0.3086,0.3112,0.3172,0.32,0.3253,0.3304,0.3338,0.3375,0.3418,0.3462,0.347,0.3483,0.3489,0.3524,0.3601,0.351,0.351,0.3535,0.3693,0.3675,0.3685,0.3602,0.3605,0.3606,0.3688,0,0.3019,0.3071,0.3107,0.3157,0.3186,0.3232,0.3282,0.3338,0.3376,0.343,0.3469,0.3516,0.3505,0.3524,0.3563,0.3597,0.3634,0.358,0.3634,0.3636,0.3609,0.3699,0.3595,0.3658,0.3699,0.3701,0.3702,0,0.3022,0.3059,0.3096,0.3173,0.3187,0.3224,0.3297,0.335,0.3439,0.3469,0.3527,0.3562,0.3638,0.3611,0.3705,0.3674,0.3691,0.3708,0.3711,0.3681,0.3639,0.3604,0.3677,0.3589,0.372,0.3718,0.3717,0,0.2975,0.3047,0.3072,0.3096,0.3187,0.321,0.3265,0.335,0.3397,0.3497,0.355,0.3628,0.3685,0.3728,0.3778,0.3748,0.3875,0.3831,0.383,0.3828,0.3743,0.373,0.3732,0.3894,0.3894,0.3894,0.3894,0,0.295,0.2971,0.3052,0.3062,0.3101,0.3186,0.3232,0.3299,0.3403,0.3461,0.3568,0.3635,0.3721,0.3804,0.3818,0.3878,0.391,0.3862,0.3861,0.3761,0.3749,0.3669,0.363,0.3897,0.3896,0.3896,0.3895,0,0.2875,0.2928,0.2962,0.3048,0.3071,0.3098,0.3197,0.3243,0.3365,0.345,0.3491,0.3661,0.3773,0.3857,0.394,0.3937,0.3883,0.3986,0.3863,0.3846,0.3737,0.3704,0.3581,0.3466,0.3993,0.3994,0.3994,0,0.2836,0.2847,0.2919,0.2932,0.2958,0.3014,0.3052,0.3183,0.3234,0.3449,0.3486,0.3665,0.3757,0.3917,0.3956,0.4011,0.3881,0.393,0.3848,0.3743,0.3707,0.3547,0.3446,0.3759,0.3757,0.3756,0.3755,0,0.2756,0.2779,0.2802,0.2837,0.2864,0.2895,0.2966,0.3006,0.3168,0.3273,0.3415,0.3527,0.3738,0.3779,0.3903,0.3916,0.3753,0.3901,0.3825,0.3564,0.3357,0.3241,0.3688,0.3742,0.3743,0.3744,0.3745,0.3746,0.2682,0.268,0.2716,0.2736,0.2757,0.2765,0.276,0.2861,0.2938,0.3082,0.3256,0.339,0.3588,0.3762,0.3755,0.3718,0.3665,0.3619,0.3604,0.3461,0.33,0.3724,0.3755,0.3756,0.3757,0.3758,0.3759,0,0.2603,0.2615,0.2626,0.2631,0.2602,0.2655,0.2687,0.2674,0.2719,0.2908,0.3028,0.3223,0.3343,0.3474,0.3562,0.3449,0.3269,0.3354,0.3104,0.3028,0.345,0.3391,0.3304,0.3304,0.3304,0.3304,0.3304,0.3305,0.2566,0.2547,0.2557,0.2477,0.2471,0.2396,0.2386,0.2396,0.2482,0.2589,0.2704,0.2866,0.3176,0.3396,0.3349,0.3261,0.2977,0.2865,0.2817,0.3139,0.3161,0.3181,0.3116,0.2973,0.2972,0.2262,0.2257,0.2253]},{"header":{"parameterUnit":"m.s-1","parameterCategory":2,"la1":30.2991,"la2":30.254,"lo1":-89.0895,"lo2":-89.0444,"dy":0.0017,"dx":0.0017,"nx":28,"ny":28,"refTime":"2025-12-18T09:00:00:Z","depth":"0","parameterNumber":3,"parameterNumberName":"V-component_of_CURRENTS"},"data":[0,0,0,0,0,0,0,0,0,0,0,0,0,0,0,0,0,0,0,0,0,0,0,0,0,0,0,0,0,0,0,0,0,0,0,0,0,0,0,0,0,0,0,0,0,0,0,0,0,0,0,0,0,0,0,0,0,0,0.0044,0.0044,0,-0.0035,-0.0036,-0.0037,-0.0094,-0.0095,-0.0095,-0.0095,-0.0219,-0.0222,-0.0225,0,0,0,0,0,0,0,0,0,0,0,0,0,0.0086,0.0086,0.0044,0.0043,0.0043,-0.0035,-0.0036,-0.0037,-0.0094,-0.0095,-0.0095,-0.0095,-0.0218,-0.0221,-0.0225,0,0,0,0,0,0,0,0,0,0,0,0,0,0.0042,0.0086,0.0044,0.0006,0.0002,-0.0035,-0.0036,-0.0038,-0.0094,-0.0095,-0.0095,-0.0096,-0.0217,-0.0221,-0.0226,-0.0244,0,0,-0.0239,-0.0241,0,0,0,0,0,0,0,0,0.0045,0.0041,0.0013,0.0009,0.0004,-0.0054,-0.0067,-0.0108,-0.0094,-0.0059,-0.0095,-0.0096,-0.0166,-0.0175,-0.0191,-0.0249,-0.0255,-0.024,-0.0242,-0.0244,-0.0246,0,0,0,0,0,0,0,0.0048,0.0043,0.0011,0.0012,0.0007,-0.0028,-0.0034,-0.0075,-0.0111,-0.0062,-0.0066,-0.0072,-0.0169,-0.0186,-0.0194,-0.0256,-0.024,-0.0244,-0.0246,-0.0248,-0.0341,-0.034,0,0,0,0,0,0,0.0065,0.0047,0.0014,0.0009,0.0026,-0.0028,-0.0035,-0.0036,-0.011,-0.0121,-0.0072,-0.0075,-0.0178,-0.0189,-0.0199,-0.0216,-0.0244,-0.0248,-0.0251,-0.0341,-0.0341,-0.034,0,0,0,0,0,0,0.0066,0.0063,0.0017,0.0027,0.0019,-0.0027,-0.0029,-0.0037,-0.0052,-0.0116,-0.0129,-0.0077,-0.0179,-0.0192,-0.0227,-0.0222,-0.025,-0.0255,-0.0341,-0.0341,-0.034,-0.0256,0,0,0,0,0,0,0.0068,0.0064,0.0069,0.0028,0.0019,0.0005,-0.0028,-0.0039,-0.0055,-0.0059,-0.0125,-0.0137,-0.018,-0.022,-0.0232,-0.0228,-0.0258,-0.0341,-0.0341,-0.0341,-0.0259,-0.0253,-0.0248,0,0,0,0,0,0.007,0.0083,0.007,0.0065,0.0027,0.0005,-0.0003,-0.0039,-0.0054,-0.0055,-0.0098,-0.0135,-0.0226,-0.0223,-0.0237,-0.0235,-0.0342,-0.0341,-0.0341,-0.0262,-0.0254,-0.0248,0,0,0,0,0,0,0.0105,0.0077,0.0062,0.0066,0.0041,-0.0004,-0.0007,-0.0031,-0.0066,-0.007,-0.0132,-0.0146,-0.0177,-0.0216,-0.0212,-0.0261,-0.029,-0.0292,-0.0226,-0.0219,-0.0214,-0.0189,-0.0262,0,0,0,0,0,0.0116,0.0117,0.0083,0.0087,0.0079,0.0038,0.0024,0.0002,-0.0034,-0.005,-0.0095,-0.0144,-0.0186,-0.0209,-0.0253,-0.0276,-0.0302,-0.0285,-0.0279,-0.0274,-0.0263,-0.0296,-0.0291,-0.0339,-0.0339,-0.0339,0,0,0.0129,0.0115,0.0114,0.0094,0.0072,0.007,0.0028,0.0017,0.0013,-0.0058,-0.0076,-0.0126,-0.0188,-0.0216,-0.0234,-0.0247,-0.0272,-0.0273,-0.0268,-0.0261,-0.0295,-0.029,-0.0286,-0.0338,-0.0338,-0.0338,0,0,0.0162,0.0147,0.016,0.0146,0.0123,0.0099,0.0101,0.0062,0.0043,0.0019,-0.0034,-0.0072,-0.0138,-0.0177,-0.0208,-0.0195,-0.0241,-0.0215,-0.0165,-0.0196,-0.0192,-0.0189,-0.0202,-0.0201,-0.021,-0.021,-0.021,0,0.0181,0.0193,0.016,0.017,0.0167,0.0118,0.0135,0.0107,0.0062,0.0054,0.0025,-0.0061,-0.0117,-0.0149,-0.015,-0.0181,-0.0201,-0.0184,-0.0187,-0.0184,-0.0182,-0.0197,-0.0196,-0.0206,-0.0206,-0.0207,-0.0207,0,0.0222,0.0231,0.024,0.0237,0.0229,0.0235,0.02,0.0189,0.0159,0.0128,0.0092,0.0017,-0.003,-0.006,-0.0106,-0.0122,-0.0139,-0.0175,-0.0198,-0.0172,-0.0189,-0.019,-0.02,-0.0202,-0.0203,-0.0204,0,0,0.0268,0.027,0.0274,0.0291,0.0268,0.0272,0.0269,0.0256,0.0269,0.0204,0.0214,0.012,0.008,0.0043,-0.0019,-0.0055,-0.0065,-0.0104,-0.0108,-0.0105,-0.0118,-0.0132,-0.0135,-0.0101,-0.0101,-0.0101,-0.0129,0,0.0313,0.0355,0.0338,0.0379,0.0401,0.0364,0.0374,0.0354,0.0323,0.0318,0.0235,0.0209,0.0119,0.0102,0.0052,-0.003,-0.0066,-0.0053,-0.0154,-0.0156,-0.0163,-0.0136,-0.0121,-0.0145,-0.0131,-0.0131,-0.0131,0,0.0363,0.0386,0.0439,0.0468,0.0476,0.0491,0.0509,0.0507,0.0476,0.0451,0.0402,0.034,0.0278,0.0199,0.0075,0.0089,-0.0006,-0.0078,-0.0082,-0.0124,-0.0173,-0.0174,-0.0149,-0.0328,-0.0133,-0.0133,-0.0133,0,0.0425,0.0459,0.051,0.0517,0.0538,0.0561,0.0567,0.0552,0.058,0.0534,0.056,0.0453,0.0433,0.0293,0.0136,0.0108,0.0009,-0.0048,-0.0151,-0.0152,-0.0174,-0.0177,-0.0324,-0.0138,-0.0138,-0.0138,-0.0138,0,0.0484,0.0526,0.0548,0.0578,0.0653,0.0633,0.0706,0.0686,0.0701,0.0763,0.0638,0.0672,0.0455,0.0371,0.0196,0.0036,0.0053,-0.0129,-0.016,-0.0143,-0.0144,-0.033,-0.044,-0.0139,-0.0138,-0.0138,-0.0138,0,0.0549,0.0559,0.0626,0.0666,0.0688,0.0738,0.081,0.0864,0.0853,0.0935,0.0934,0.0853,0.0735,0.0522,0.0311,0.0142,-0.0134,-0.0102,-0.0059,-0.0084,-0.0356,-0.0461,-0.0641,-0.0712,-0.0212,-0.0213,-0.0213,0,0.0587,0.063,0.0701,0.076,0.0785,0.0861,0.0927,0.0934,0.1004,0.1062,0.1121,0.1036,0.1006,0.0693,0.0359,0.0063,-0.0135,-0.0125,-0.0192,-0.0358,-0.0499,-0.0579,-0.0631,-0.0182,-0.0182,-0.0182,-0.0182,0,0.0672,0.0697,0.0755,0.0872,0.0953,0.1046,0.1137,0.1223,0.1262,0.1346,0.1434,0.1418,0.1115,0.0819,0.0392,0.0168,-0.0248,-0.0137,-0.0326,-0.0497,-0.0576,-0.0662,-0.0168,-0.0183,-0.0183,-0.0183,-0.0183,-0.0183,0.0745,0.0807,0.0893,0.1005,0.1094,0.1221,0.1323,0.1441,0.1582,0.1723,0.1683,0.1693,0.123,0.0649,0.0332,-0.0253,-0.027,-0.0433,-0.0545,-0.061,-0.069,-0.0188,-0.0232,-0.0232,-0.0232,-0.0233,-0.0233,0,0.0848,0.092,0.1028,0.1157,0.1263,0.1292,0.1465,0.1584,0.1778,0.1886,0.1966,0.1729,0.1189,0.0611,-0.0174,-0.0577,-0.073,-0.0811,-0.0933,-0.0966,-0.053,-0.054,-0.0632,-0.0631,-0.0631,-0.0631,-0.0631,-0.0631,0.0917,0.1037,0.1088,0.1281,0.1371,0.1527,0.1633,0.1813,0.1928,0.2068,0.2059,0.2011,0.1543,0.0161,-0.0757,-0.0971,-0.1265,-0.1343,-0.148,-0.1204,-0.1178,-0.1152,-0.1188,-0.1414,-0.1415,-0.1849,-0.1854,-0.1857]}],[{"header":{"parameterUnit":"m.s-1","parameterCategory":2,"la1":30.2991,"la2":30.254,"lo1":-89.0895,"lo2":-89.0444,"dy":0.0017,"dx":0.0017,"nx":28,"ny":28,"refTime":"2025-12-18T09:00:00:Z","depth":"2","parameterNumber":2,"parameterNumberName":"U-component_of_CURRENTS"},"data":[0,0,0,0,0,0,0,0,0,0,0,0,0,0,0,0,0,0,0,0,0,0,0,0,0,0,0,0,0,0,0,0,0,0,0,0,0,0,0,0,0,0,0,0,0,0,0,0,0,0,0,0,0,0,0,0,0,0,0.256,0.256,0,0.2597,0.2597,0.2597,0.2603,0.2602,0.2602,0.2602,0.2613,0.2613,0.2614,0,0,0,0,0,0,0,0,0,0,0,0,0,0.249,0.2492,0.256,0.256,0.2561,0.2596,0.2597,0.2597,0.2603,0.2602,0.2602,0.2602,0.2613,0.2613,0.2614,0,0,0,0,0,0,0,0,0,0,0,0,0,0.2521,0.2492,0.2559,0.2569,0.2571,0.2596,0.2597,0.2597,0.2603,0.2602,0.2602,0.2602,0.2612,0.2613,0.2614,0.2622,0,0,0.2616,0.2616,0,0,0,0,0,0,0,0,0.252,0.2524,0.2567,0.2569,0.257,0.2596,0.2576,0.2605,0.2603,0.2588,0.2602,0.2602,0.2606,0.2607,0.2612,0.2623,0.2623,0.2616,0.2616,0.2616,0.2616,0,0,0,0,0,0,0,0.2517,0.2522,0.2572,0.2568,0.257,0.2571,0.2575,0.2582,0.2596,0.259,0.2591,0.2598,0.2607,0.2612,0.2613,0.2623,0.2616,0.2616,0.2617,0.2617,0.2683,0.2684,0,0,0,0,0,0,0.2518,0.252,0.2571,0.2574,0.2546,0.2572,0.2577,0.2587,0.2597,0.2599,0.2598,0.2598,0.2611,0.2612,0.2613,0.2666,0.2616,0.2617,0.2617,0.2681,0.2683,0.2685,0,0,0,0,0,0,0.2516,0.2522,0.257,0.2549,0.2555,0.2574,0.2585,0.2588,0.2605,0.2604,0.2605,0.2614,0.2611,0.2612,0.2633,0.2665,0.2617,0.2618,0.268,0.2682,0.2684,0.2746,0,0,0,0,0,0,0.2514,0.2521,0.2532,0.2549,0.2557,0.2594,0.2586,0.2589,0.261,0.261,0.2618,0.2618,0.2611,0.2633,0.2634,0.2665,0.2618,0.2678,0.2681,0.2683,0.2742,0.275,0.2756,0,0,0,0,0,0.2511,0.2523,0.2532,0.2539,0.257,0.2595,0.26,0.261,0.2611,0.2623,0.263,0.2618,0.265,0.2634,0.2636,0.2668,0.2677,0.268,0.2683,0.2739,0.2748,0.2756,0,0,0,0,0,0,0.2491,0.2525,0.2536,0.2556,0.258,0.2597,0.2612,0.262,0.2636,0.2639,0.2633,0.2634,0.2669,0.2658,0.2641,0.2694,0.2663,0.2666,0.2705,0.2713,0.272,0.2725,0.2619,0,0,0,0,0,0.2495,0.2515,0.2546,0.2561,0.258,0.26,0.2613,0.2623,0.2639,0.2646,0.2652,0.2662,0.2681,0.2688,0.27,0.2725,0.2734,0.2747,0.2755,0.2761,0.2766,0.2805,0.2817,0.2695,0.2695,0.2695,0,0,0.2488,0.2512,0.2521,0.2559,0.2581,0.2608,0.2607,0.2635,0.2659,0.2644,0.2677,0.2689,0.2695,0.2728,0.2742,0.2723,0.2804,0.2765,0.277,0.2772,0.281,0.2822,0.2832,0.2697,0.2696,0.2696,0,0,0.2488,0.2513,0.2535,0.2561,0.2602,0.2619,0.2631,0.2663,0.2682,0.2714,0.2717,0.2747,0.2766,0.2782,0.2792,0.2844,0.2844,0.285,0.2887,0.2926,0.2936,0.2945,0.2988,0.3,0.285,0.285,0.285,0,0.2482,0.2514,0.2543,0.2573,0.2596,0.2626,0.2654,0.2681,0.2713,0.2737,0.2732,0.279,0.2794,0.2845,0.2865,0.2861,0.2884,0.2854,0.2936,0.2945,0.2953,0.2994,0.3007,0.2853,0.2853,0.2853,0.2852,0,0.2499,0.2529,0.2546,0.2596,0.2623,0.2653,0.2696,0.273,0.2757,0.2782,0.2844,0.286,0.2892,0.2906,0.2901,0.2968,0.2967,0.2944,0.2914,0.2969,0.3009,0.3021,0.2858,0.2857,0.2856,0.2855,0,0,0.2471,0.2546,0.2551,0.258,0.2641,0.2662,0.2717,0.2774,0.2817,0.2856,0.2911,0.2956,0.2971,0.2983,0.2992,0.3026,0.3109,0.3014,0.3015,0.3056,0.3208,0.3176,0.3187,0.3104,0.3106,0.3108,0.3217,0,0.248,0.2531,0.257,0.2617,0.265,0.2701,0.275,0.2803,0.2854,0.2914,0.2957,0.3012,0.2999,0.3028,0.3063,0.3102,0.3142,0.3082,0.3147,0.3149,0.3115,0.32,0.2952,0.3026,0.3229,0.3231,0.3233,0,0.2482,0.252,0.2566,0.2641,0.2662,0.2694,0.2779,0.2825,0.2918,0.2966,0.3028,0.3064,0.314,0.3111,0.321,0.3176,0.3198,0.322,0.3224,0.3179,0.314,0.3,0.304,0.3253,0.3251,0.325,0.3248,0,0.2439,0.2515,0.2551,0.2574,0.2662,0.2699,0.2747,0.2836,0.2894,0.3,0.306,0.314,0.3202,0.3242,0.3295,0.3263,0.3398,0.3351,0.3345,0.3343,0.3136,0.3113,0.3415,0.3415,0.3415,0.3415,0.3414,0,0.2429,0.2455,0.2535,0.2555,0.2605,0.2673,0.2739,0.2809,0.2919,0.2988,0.3079,0.3156,0.324,0.3322,0.3337,0.3398,0.3435,0.3377,0.3377,0.3153,0.3131,0.3318,0.3305,0.3419,0.3418,0.3417,0.3416,0,0.2369,0.2425,0.2465,0.2556,0.2584,0.2613,0.2725,0.2777,0.2898,0.2994,0.3038,0.3201,0.3315,0.339,0.3482,0.3464,0.351,0.3513,0.3254,0.3222,0.3416,0.3405,0.352,0.352,0.352,0.352,0.352,0,0.2343,0.236,0.244,0.2462,0.2502,0.2563,0.261,0.2742,0.2803,0.3008,0.305,0.3224,0.3311,0.3462,0.3476,0.3523,0.3548,0.3308,0.3192,0.3443,0.3431,0.342,0.341,0.2947,0.2942,0.2938,0.2935,0,0.2288,0.2315,0.2348,0.2395,0.244,0.2486,0.2566,0.2613,0.2769,0.2872,0.3012,0.3109,0.3286,0.3244,0.3338,0.3319,0.328,0.3233,0.357,0.2964,0.2912,0.2898,0.2904,0.2901,0.2904,0.2907,0.2909,0.291,0.2236,0.2236,0.2283,0.2317,0.2362,0.2391,0.2397,0.2494,0.2577,0.2693,0.2861,0.2928,0.3021,0.3044,0.2986,0.2954,0.3165,0.3012,0.3019,0.3032,0.2951,0.2903,0.2875,0.2878,0.2881,0.2884,0.2886,0,0.2169,0.2184,0.2207,0.2233,0.2234,0.2303,0.2352,0.2334,0.2374,0.2516,0.2613,0.249,0.2513,0.2592,0.2506,0.2544,0.247,0.2431,0.2296,0.2336,0.237,0.2248,0.1989,0.1986,0.1982,0.1979,0,0,0.2135,0.2121,0.2128,0.2096,0.212,0.209,0.2093,0.2085,0.2144,0.2148,0.2179,0.2397,0.2533,0.2212,0.2206,0.2073,0.2171,0.2,0.2733,0.2614,0.2642,0.2739,0.2604,0,0,0,0,0]},{"header":{"parameterUnit":"m.s-1","parameterCategory":2,"la1":30.2991,"la2":30.254,"lo1":-89.0895,"lo2":-89.0444,"dy":0.0017,"dx":0.0017,"nx":28,"ny":28,"refTime":"2025-12-18T09:00:00:Z","depth":"2","parameterNumber":3,"parameterNumberName":"V-component_of_CURRENTS"},"data":[0,0,0,0,0,0,0,0,0,0,0,0,0,0,0,0,0,0,0,0,0,0,0,0,0,0,0,0,0,0,0,0,0,0,0,0,0,0,0,0,0,0,0,0,0,0,0,0,0,0,0,0,0,0,0,0,0,0,0.0038,0.0038,0,-0.0031,-0.0032,-0.0033,-0.0079,-0.0079,-0.008,-0.008,-0.0171,-0.0173,-0.0176,0,0,0,0,0,0,0,0,0,0,0,0,0,0.0073,0.0073,0.0038,0.0038,0.0037,-0.0031,-0.0032,-0.0033,-0.0079,-0.0079,-0.008,-0.008,-0.017,-0.0173,-0.0176,0,0,0,0,0,0,0,0,0,0,0,0,0,0.0035,0.0073,0.0038,0.0007,0.0004,-0.0031,-0.0032,-0.0033,-0.0079,-0.0079,-0.008,-0.008,-0.0169,-0.0173,-0.0176,-0.0192,0,0,-0.0187,-0.0188,0,0,0,0,0,0,0,0,0.0037,0.0034,0.0012,0.0009,0.0005,-0.0045,-0.0053,-0.0087,-0.0079,-0.005,-0.008,-0.008,-0.013,-0.0136,-0.0151,-0.0196,-0.02,-0.0187,-0.0189,-0.019,-0.0191,0,0,0,0,0,0,0,0.004,0.0036,0.0009,0.0012,0.0007,-0.0023,-0.0029,-0.006,-0.0089,-0.0052,-0.0055,-0.006,-0.0132,-0.0148,-0.0154,-0.0202,-0.0187,-0.019,-0.0192,-0.0193,-0.0261,-0.0261,0,0,0,0,0,0,0.0055,0.0039,0.0011,0.0007,0.0023,-0.0023,-0.0029,-0.003,-0.0088,-0.0097,-0.006,-0.0062,-0.0142,-0.0149,-0.0157,-0.0165,-0.019,-0.0194,-0.0196,-0.0261,-0.0261,-0.0261,0,0,0,0,0,0,0.0057,0.0054,0.0014,0.0022,0.0016,-0.0023,-0.0024,-0.0031,-0.0045,-0.0094,-0.0103,-0.0065,-0.0142,-0.0152,-0.0177,-0.017,-0.0195,-0.0198,-0.0262,-0.0261,-0.0261,-0.0192,0,0,0,0,0,0,0.0058,0.0055,0.0058,0.0024,0.0016,0.0003,-0.0024,-0.0032,-0.0047,-0.005,-0.0101,-0.011,-0.0143,-0.0171,-0.018,-0.0175,-0.0201,-0.0262,-0.0262,-0.0261,-0.0194,-0.0189,-0.0184,0,0,0,0,0,0.0059,0.0071,0.0059,0.0056,0.0023,0.0004,-0.0003,-0.0033,-0.0046,-0.0047,-0.008,-0.0108,-0.0175,-0.0174,-0.0184,-0.018,-0.0262,-0.0262,-0.0261,-0.0196,-0.019,-0.0184,0,0,0,0,0,0,0.0088,0.0066,0.0053,0.0056,0.0035,-0.0003,-0.0006,-0.0027,-0.0055,-0.0057,-0.0105,-0.0116,-0.0137,-0.0167,-0.0165,-0.0199,-0.0224,-0.0225,-0.0171,-0.0165,-0.016,-0.014,-0.0204,0,0,0,0,0,0.0097,0.0099,0.0071,0.0074,0.0067,0.0031,0.0019,0.0001,-0.0027,-0.004,-0.0075,-0.0112,-0.0143,-0.016,-0.0192,-0.0209,-0.0239,-0.0214,-0.0209,-0.0205,-0.0196,-0.0237,-0.0234,-0.0259,-0.0259,-0.0259,0,0,0.0108,0.0097,0.0097,0.008,0.006,0.0062,0.0023,0.0015,0.0014,-0.0045,-0.0056,-0.0096,-0.0144,-0.0163,-0.0175,-0.0187,-0.0213,-0.0204,-0.02,-0.0193,-0.0236,-0.0233,-0.0231,-0.0259,-0.0259,-0.0259,0,0,0.0139,0.0124,0.0138,0.0126,0.0107,0.0087,0.0089,0.0056,0.004,0.0022,-0.0019,-0.005,-0.0099,-0.0129,-0.0152,-0.0139,-0.0186,-0.0153,-0.0113,-0.0152,-0.015,-0.0149,-0.0178,-0.018,-0.015,-0.015,-0.015,0,0.0153,0.0168,0.0138,0.015,0.0148,0.0104,0.0122,0.0099,0.0063,0.0054,0.003,-0.004,-0.0082,-0.0104,-0.0102,-0.0127,-0.0156,-0.0129,-0.0144,-0.0144,-0.0144,-0.0174,-0.0177,-0.0147,-0.0147,-0.0148,-0.0148,0,0.0195,0.0205,0.0213,0.0214,0.0208,0.0215,0.0187,0.0178,0.015,0.0122,0.0092,0.0031,-0.0008,-0.0031,-0.0065,-0.0083,-0.0105,-0.0133,-0.0156,-0.0137,-0.0171,-0.0175,-0.0142,-0.0143,-0.0144,-0.0145,0,0,0.0233,0.0242,0.0245,0.0262,0.0246,0.0249,0.0251,0.0239,0.0246,0.0193,0.0191,0.0124,0.0085,0.0057,0.0006,-0.0033,-0.006,-0.0077,-0.0081,-0.0099,-0.0142,-0.0157,-0.0164,-0.0093,-0.0094,-0.0094,-0.0163,0,0.0275,0.0317,0.0306,0.0346,0.0367,0.0335,0.0344,0.0326,0.0296,0.0281,0.021,0.0185,0.012,0.0102,0.0053,-0.0029,-0.0069,-0.0038,-0.0164,-0.0167,-0.0177,-0.0169,-0.0139,-0.0197,-0.0167,-0.0168,-0.0169,0,0.0322,0.0345,0.0393,0.0421,0.0428,0.0439,0.0448,0.0449,0.0412,0.0387,0.0342,0.0286,0.0227,0.0166,0.0037,0.0059,-0.0032,-0.0103,-0.0108,-0.0148,-0.0191,-0.0214,-0.0207,-0.0177,-0.0176,-0.0175,-0.0175,0,0.037,0.0408,0.0451,0.0459,0.0479,0.0493,0.0498,0.0479,0.0497,0.0453,0.0458,0.0367,0.0335,0.0207,0.0063,0.0048,-0.0081,-0.0121,-0.0221,-0.0223,-0.0235,-0.0237,-0.0214,-0.0214,-0.0213,-0.0213,-0.0213,0,0.0421,0.0456,0.0478,0.0501,0.0559,0.0546,0.0595,0.0581,0.0582,0.0617,0.0516,0.0523,0.0343,0.025,0.0097,-0.0066,-0.0057,-0.0208,-0.0242,-0.0209,-0.0208,-0.0222,-0.0222,-0.0216,-0.0215,-0.0215,-0.0214,0,0.0465,0.0478,0.0532,0.0565,0.0583,0.0619,0.067,0.0705,0.0688,0.0732,0.0728,0.0647,0.0524,0.0339,0.0141,-0.0004,-0.0171,-0.0234,-0.0177,-0.0203,-0.0296,-0.0292,-0.0352,-0.0353,-0.0354,-0.0355,-0.0355,0,0.049,0.0523,0.0582,0.0623,0.0639,0.0695,0.0741,0.0754,0.0801,0.0816,0.0848,0.0754,0.0703,0.0403,0.0134,-0.0128,-0.0167,-0.0277,-0.0306,-0.0283,-0.031,-0.0304,-0.0299,-0.0295,-0.0295,-0.0295,-0.0295,0,0.0537,0.0554,0.0597,0.0685,0.0743,0.0818,0.0883,0.0943,0.0972,0.1012,0.1044,0.1008,0.0738,0.0481,0.0121,-0.0057,-0.0235,-0.0288,-0.028,-0.0261,-0.0235,-0.0259,-0.0255,-0.0296,-0.0296,-0.0296,-0.0296,-0.0296,0.0565,0.0604,0.0663,0.0746,0.0826,0.0922,0.099,0.1072,0.1163,0.1227,0.1195,0.1149,0.0855,0.0405,0.0088,-0.0241,-0.0235,-0.0353,-0.0351,-0.0349,-0.0326,-0.0303,-0.0372,-0.0373,-0.0373,-0.0373,-0.0373,0,0.0592,0.064,0.0723,0.0819,0.0912,0.0951,0.1077,0.1141,0.1256,0.133,0.1355,0.1093,0.0805,0.0469,-0.002,-0.0318,-0.0337,-0.0405,-0.0366,-0.0363,-0.0361,-0.0338,-0.0388,-0.0389,-0.039,-0.0391,0,0,0.0602,0.0673,0.0717,0.0865,0.0949,0.1076,0.1152,0.1246,0.1323,0.1382,0.1382,0.1332,0.0926,0.0574,0.0166,-0.0112,-0.0167,-0.0163,-0.0119,-0.0022,-0.0016,-0.03,-0.0258,0,0,0,0,0]}],[{"header":{"parameterUnit":"m.s-1","parameterCategory":2,"la1":30.2991,"la2":30.254,"lo1":-89.0895,"lo2":-89.0444,"dy":0.0017,"dx":0.0017,"nx":28,"ny":28,"refTime":"2025-12-18T09:00:00:Z","depth":"4","parameterNumber":2,"parameterNumberName":"U-component_of_CURRENTS"},"data":[0,0,0,0,0,0,0,0,0,0,0,0,0,0,0,0,0,0,0,0,0,0,0,0,0,0,0,0,0,0,0,0,0,0,0,0,0,0,0,0,0,0,0,0,0,0,0,0,0,0,0,0,0,0,0,0,0,0,0.164,0.1641,0,0.1711,0.1711,0.1712,0.1768,0.1769,0.1769,0.177,0.1848,0.1849,0.1851,0,0,0,0,0,0,0,0,0,0,0,0,0,0.1539,0.1541,0.164,0.1641,0.1642,0.171,0.1711,0.1712,0.1768,0.1769,0.177,0.177,0.1848,0.1849,0.1851,0,0,0,0,0,0,0,0,0,0,0,0,0,0.1592,0.1541,0.164,0.168,0.1684,0.171,0.1711,0.1712,0.1768,0.1769,0.177,0.1771,0.1847,0.1849,0.1851,0.1841,0,0,0.1857,0.1858,0,0,0,0,0,0,0,0,0.1589,0.1595,0.1673,0.1677,0.1682,0.1733,0.1705,0.1756,0.1767,0.1734,0.177,0.1771,0.1811,0.1816,0.1824,0.1845,0.1848,0.1857,0.1859,0.186,0.186,0,0,0,0,0,0,0,0.1585,0.1592,0.1666,0.1674,0.1679,0.169,0.1698,0.1714,0.1763,0.1737,0.1741,0.1752,0.1813,0.1821,0.1826,0.1849,0.1857,0.1859,0.1861,0.1861,0.1976,0.1978,0,0,0,0,0,0,0.158,0.1589,0.1663,0.1668,0.164,0.1691,0.17,0.1714,0.1763,0.1773,0.1751,0.1755,0.1817,0.1823,0.1829,0.1919,0.186,0.1862,0.1863,0.1974,0.1976,0.1978,0,0,0,0,0,0,0.1578,0.1586,0.1661,0.1631,0.1642,0.1691,0.1706,0.1715,0.176,0.1775,0.1784,0.1792,0.1819,0.1826,0.1879,0.1918,0.1862,0.1864,0.1972,0.1975,0.1977,0.2035,0,0,0,0,0,0,0.1575,0.1585,0.1609,0.1631,0.1644,0.1698,0.1706,0.1716,0.1763,0.1769,0.1812,0.1818,0.182,0.1876,0.1881,0.192,0.1866,0.197,0.1973,0.1976,0.2031,0.2039,0.2046,0,0,0,0,0,0.1571,0.1591,0.161,0.162,0.167,0.1699,0.1707,0.1743,0.1764,0.1787,0.1822,0.1819,0.1901,0.1879,0.1885,0.1925,0.1968,0.1972,0.1976,0.2027,0.2037,0.2046,0,0,0,0,0,0,0.1559,0.1599,0.1621,0.1654,0.1687,0.171,0.1741,0.1763,0.1807,0.1827,0.1838,0.1847,0.1909,0.1909,0.1884,0.1969,0.1935,0.1941,0.1972,0.1982,0.199,0.1988,0.1868,0,0,0,0,0,0.1568,0.1599,0.1632,0.1664,0.1684,0.172,0.1744,0.177,0.1804,0.1827,0.1857,0.1891,0.1923,0.1947,0.1972,0.2015,0.2021,0.2046,0.2054,0.2061,0.2064,0.2109,0.2122,0.1992,0.1991,0.1991,0,0,0.1571,0.16,0.1618,0.1665,0.1697,0.1728,0.1738,0.1786,0.182,0.1826,0.1896,0.1922,0.1942,0.1994,0.2022,0.2004,0.2104,0.2066,0.2072,0.2071,0.2115,0.2127,0.2139,0.1994,0.1994,0.1993,0,0,0.1582,0.1624,0.1651,0.1682,0.1738,0.1758,0.1779,0.1827,0.1864,0.192,0.194,0.1992,0.2038,0.2062,0.2077,0.2143,0.2145,0.2159,0.2199,0.2243,0.2254,0.2264,0.2296,0.2308,0.2163,0.2163,0.2163,0,0.159,0.1627,0.1663,0.1697,0.173,0.1775,0.181,0.1846,0.1908,0.1944,0.1953,0.2049,0.2067,0.2129,0.2156,0.2161,0.2184,0.2159,0.2253,0.2263,0.2271,0.2302,0.2314,0.2166,0.2166,0.2166,0.2165,0,0.1609,0.1655,0.1676,0.1734,0.1772,0.1813,0.1863,0.1915,0.1965,0.2001,0.209,0.2122,0.2177,0.2196,0.2197,0.2276,0.2272,0.2257,0.2226,0.2288,0.2316,0.2328,0.2171,0.217,0.2169,0.2168,0,0,0.1583,0.1673,0.1684,0.1723,0.18,0.1828,0.1898,0.1967,0.2022,0.2089,0.216,0.2223,0.2255,0.2274,0.2294,0.2334,0.2417,0.233,0.2331,0.2356,0.2521,0.2372,0.237,0.2427,0.2429,0.2431,0.2518,0,0.1594,0.1657,0.1703,0.1772,0.1809,0.1878,0.1935,0.2007,0.2074,0.2152,0.221,0.2286,0.2281,0.2326,0.2366,0.2411,0.2451,0.2395,0.2461,0.2463,0.2318,0.2379,0.2438,0.2526,0.2529,0.2531,0.2532,0,0.1592,0.164,0.1706,0.1801,0.1826,0.1876,0.1984,0.2042,0.2153,0.2212,0.2295,0.2344,0.2433,0.2412,0.2516,0.2487,0.2511,0.2532,0.2536,0.2381,0.2335,0.2451,0.2554,0.2552,0.255,0.2549,0.2548,0,0.1544,0.164,0.1697,0.1729,0.1838,0.1893,0.1957,0.2066,0.2134,0.2262,0.2331,0.2425,0.2499,0.2545,0.2598,0.2575,0.2697,0.2662,0.2548,0.2538,0.262,0.2608,0.2727,0.2727,0.2726,0.2726,0.2726,0,0.1521,0.157,0.1686,0.1715,0.1792,0.1878,0.1972,0.2051,0.2178,0.2255,0.2364,0.2435,0.2542,0.2619,0.2636,0.263,0.2731,0.2563,0.2552,0.2643,0.2633,0.2629,0.2616,0.2729,0.2729,0.2728,0.2727,0,0.1455,0.1533,0.1603,0.1728,0.1772,0.1827,0.1976,0.2036,0.2173,0.2279,0.2332,0.2484,0.2575,0.2656,0.2743,0.2672,0.2684,0.2656,0.2764,0.2757,0.2485,0.2475,0.2525,0.2521,0.2517,0.2514,0.2511,0,0.1425,0.1457,0.1594,0.1638,0.1702,0.18,0.1865,0.2015,0.208,0.2281,0.2317,0.2474,0.255,0.2556,0.2646,0.2671,0.2639,0.2625,0.253,0.2481,0.2467,0.2462,0.2457,0.2505,0.2504,0.2503,0.2502,0,0.1364,0.1426,0.1483,0.1572,0.165,0.1725,0.1831,0.1867,0.2031,0.218,0.2249,0.2304,0.2403,0.2457,0.2506,0.2513,0.2619,0.2585,0.2591,0.2501,0.2457,0.2446,0.2445,0.2489,0.2491,0.2492,0.2493,0,0.1319,0.1339,0.1422,0.1488,0.1579,0.162,0.1688,0.1763,0.1848,0.2058,0.2074,0.2232,0.2372,0.2378,0.242,0.2422,0.2375,0.2284,0.2305,0.2321,0.2213,0.2124,0.2052,0,0,0,0,0,0.1262,0.1274,0.1329,0.1391,0.1475,0.1531,0.1652,0.1723,0.1877,0.1873,0.1968,0.2043,0.2109,0.2196,0.2157,0.2335,0.2388,0.228,0.2294,0.2415,0.2431,0.2322,0,0,0,0,0,0,0.1222,0.127,0.129,0.1296,0.1321,0.1399,0.1471,0.1576,0.1581,0.1744,0.1792,0.1921,0.2018,0.211,0.2118,0.2144,0.2111,0.2383,0.2377,0.2407,0.2421,0.2433,0.2327,0,0,0,0,0]},{"header":{"parameterUnit":"m.s-1","parameterCategory":2,"la1":30.2991,"la2":30.254,"lo1":-89.0895,"lo2":-89.0444,"dy":0.0017,"dx":0.0017,"nx":28,"ny":28,"refTime":"2025-12-18T09:00:00:Z","depth":"4","parameterNumber":3,"parameterNumberName":"V-component_of_CURRENTS"},"data":[0,0,0,0,0,0,0,0,0,0,0,0,0,0,0,0,0,0,0,0,0,0,0,0,0,0,0,0,0,0,0,0,0,0,0,0,0,0,0,0,0,0,0,0,0,0,0,0,0,0,0,0,0,0,0,0,0,0,0.0064,0.0063,0,0.0016,0.0015,0.0014,-0.0017,-0.0017,-0.0018,-0.0018,-0.0084,-0.0086,-0.0087,0,0,0,0,0,0,0,0,0,0,0,0,0,0.0086,0.0086,0.0064,0.0063,0.0063,0.0016,0.0015,0.0014,-0.0017,-0.0017,-0.0018,-0.0018,-0.0083,-0.0085,-0.0087,0,0,0,0,0,0,0,0,0,0,0,0,0,0.006,0.0086,0.0064,0.0042,0.004,0.0016,0.0015,0.0014,-0.0017,-0.0017,-0.0018,-0.0018,-0.0083,-0.0085,-0.0088,-0.01,0,0,-0.0095,-0.0096,0,0,0,0,0,0,0,0,0.0062,0.0059,0.0046,0.0044,0.0041,0.0006,-0.0001,-0.0025,-0.0017,0.0003,-0.0018,-0.0018,-0.0055,-0.0059,-0.007,-0.0103,-0.0106,-0.0095,-0.0097,-0.0098,-0.0099,0,0,0,0,0,0,0,0.0064,0.0061,0.0043,0.0045,0.0042,0.0021,0.0017,-0.0006,-0.0026,0.0001,-0.0001,-0.0004,-0.0056,-0.0067,-0.0071,-0.0107,-0.0095,-0.0098,-0.0099,-0.01,-0.0152,-0.0152,0,0,0,0,0,0,0.0074,0.0063,0.0045,0.0042,0.0053,0.0021,0.0017,0.0016,-0.0025,-0.0031,-0.0004,-0.0005,-0.0063,-0.0068,-0.0074,-0.0078,-0.0098,-0.01,-0.0102,-0.0152,-0.0152,-0.0152,0,0,0,0,0,0,0.0075,0.0073,0.0047,0.0052,0.0047,0.0021,0.0021,0.0016,0.0007,-0.0029,-0.0035,-0.0007,-0.0063,-0.007,-0.0088,-0.0082,-0.0101,-0.0104,-0.0152,-0.0152,-0.0152,-0.0095,0,0,0,0,0,0,0.0076,0.0074,0.0077,0.0053,0.0048,0.004,0.0021,0.0015,0.0005,0.0003,-0.0034,-0.004,-0.0064,-0.0084,-0.0091,-0.0085,-0.0106,-0.0152,-0.0152,-0.0152,-0.0097,-0.0093,-0.009,0,0,0,0,0,0.0077,0.0086,0.0078,0.0076,0.0053,0.0041,0.0036,0.0015,0.0006,0.0006,-0.0018,-0.0039,-0.0087,-0.0086,-0.0094,-0.0089,-0.0152,-0.0152,-0.0152,-0.0099,-0.0094,-0.009,0,0,0,0,0,0,0.0097,0.0083,0.0074,0.0077,0.0063,0.0036,0.0035,0.002,0.0,-0.0001,-0.0036,-0.0044,-0.0059,-0.0082,-0.008,-0.0104,-0.0124,-0.0125,-0.0081,-0.0077,-0.0073,-0.0057,-0.0108,0,0,0,0,0,0.0104,0.0107,0.0088,0.0091,0.0086,0.0061,0.0053,0.004,0.002,0.0011,-0.0014,-0.0042,-0.0064,-0.0076,-0.01,-0.0112,-0.0141,-0.0115,-0.0111,-0.0108,-0.0101,-0.0141,-0.014,-0.0151,-0.0151,-0.0151,0,0,0.0113,0.0105,0.0107,0.0095,0.0082,0.0085,0.0056,0.005,0.0052,0.0007,0.0002,-0.0029,-0.0065,-0.0077,-0.0086,-0.0095,-0.012,-0.0107,-0.0104,-0.0099,-0.014,-0.0139,-0.0138,-0.0151,-0.0151,-0.0151,0,0,0.0136,0.0126,0.0138,0.0131,0.0118,0.0104,0.0106,0.0083,0.0072,0.0061,0.003,0.0006,-0.0029,-0.0051,-0.0068,-0.0058,-0.0099,-0.0069,-0.0036,-0.0075,-0.0074,-0.0074,-0.0108,-0.0112,-0.0066,-0.0066,-0.0066,0,0.0147,0.016,0.0139,0.0149,0.015,0.0118,0.0132,0.0117,0.0091,0.0085,0.0068,0.0015,-0.0015,-0.0032,-0.0029,-0.0049,-0.0078,-0.0048,-0.0069,-0.007,-0.007,-0.0106,-0.011,-0.0063,-0.0064,-0.0064,-0.0064,0,0.0179,0.0189,0.0196,0.02,0.0197,0.0204,0.0185,0.0179,0.016,0.014,0.0117,0.0072,0.0041,0.0025,0.0001,-0.0017,-0.0039,-0.0059,-0.0077,-0.0066,-0.0104,-0.0109,-0.006,-0.0061,-0.0061,-0.0062,0,0,0.0204,0.0217,0.022,0.0234,0.0226,0.023,0.0235,0.0229,0.0233,0.0195,0.0193,0.0145,0.0114,0.0093,0.0055,0.002,-0.0012,-0.0017,-0.002,-0.0045,-0.0098,-0.0102,-0.0109,-0.0039,-0.004,-0.004,-0.0122,0,0.0235,0.027,0.0266,0.03,0.0317,0.0298,0.0307,0.0296,0.0273,0.0261,0.0208,0.0189,0.0142,0.0128,0.0086,0.0013,-0.0024,0.0012,-0.0111,-0.0114,-0.0115,-0.0114,-0.0042,-0.0126,-0.0128,-0.0129,-0.0129,0,0.0268,0.0289,0.0329,0.0356,0.0362,0.0376,0.0386,0.039,0.0361,0.0343,0.0307,0.0262,0.0212,0.0169,0.0052,0.0076,-0.0002,-0.0064,-0.0069,-0.0095,-0.0129,-0.0143,-0.014,-0.0139,-0.0138,-0.0137,-0.0137,0,0.0297,0.0333,0.037,0.0378,0.04,0.0417,0.0426,0.0413,0.0426,0.0393,0.0393,0.0318,0.0286,0.018,0.0055,0.005,-0.0079,-0.0104,-0.0182,-0.0184,-0.018,-0.018,-0.0188,-0.0188,-0.0187,-0.0187,-0.0187,0,0.0329,0.0359,0.0388,0.0407,0.0456,0.0455,0.0495,0.0489,0.0489,0.0507,0.0438,0.0429,0.0286,0.0196,0.0074,-0.0067,-0.0068,-0.0175,-0.0205,-0.0155,-0.0151,-0.0185,-0.0183,-0.019,-0.019,-0.0189,-0.0188,0,0.0349,0.0368,0.0414,0.0452,0.0471,0.0502,0.0551,0.0576,0.0568,0.0589,0.0586,0.051,0.0391,0.0244,0.0068,-0.0034,-0.0173,-0.0225,-0.0153,-0.0178,-0.0258,-0.0253,-0.0319,-0.032,-0.0321,-0.0321,-0.0322,0,0.036,0.0386,0.0448,0.0482,0.0501,0.0552,0.0591,0.0611,0.0639,0.0637,0.0649,0.0555,0.0483,0.0244,0.0075,-0.0155,-0.0191,-0.0266,-0.027,-0.0249,-0.0272,-0.0265,-0.0259,-0.0323,-0.0323,-0.0323,-0.0323,0,0.0378,0.04,0.0437,0.051,0.0561,0.0623,0.0677,0.0709,0.073,0.0734,0.0704,0.0583,0.0448,0.0253,0.0077,-0.0091,-0.0218,-0.0274,-0.0274,-0.0278,-0.0254,-0.0275,-0.0268,-0.0326,-0.0326,-0.0325,-0.0325,0,0.0385,0.0413,0.0463,0.0527,0.06,0.0665,0.0697,0.0733,0.0764,0.0765,0.0752,0.0608,0.0528,0.0285,0.0121,-0.0042,-0.0091,-0.0151,-0.0159,-0.0158,-0.0091,-0.0036,-0.0063,0,0,0,0,0,0.0383,0.0412,0.0476,0.0546,0.0624,0.0666,0.0742,0.0768,0.08,0.079,0.0775,0.0652,0.0415,0.0313,0.015,0.0086,-0.0134,-0.0113,-0.021,-0.0339,-0.0336,-0.0286,0,0,0,0,0,0,0.0375,0.0429,0.0467,0.0553,0.0604,0.0689,0.0739,0.0763,0.0759,0.0769,0.0651,0.0601,0.0373,0.0509,0.0143,0.0093,0.0007,-0.0219,-0.0223,-0.0341,-0.0338,-0.0336,-0.0283,0,0,0,0,0]}]]